ONEWEB-0047 (45152 NORAD) Tracking and Keplerian Element Data

This shows tracking and keplerian element data for the satellite.

Feedback or suggestion? Click here.




ElementValue
Catalog45152
NameONEWEB-0047
Epoch Orbit3890
Epoch Day298.25001157
Epoch Year2020
RAAN86.2427
Inclination88.0221
Eccentricity0.002074
Argument of Perigee120.2168
Mean Anonmoly78.7377
Mean Motion13.36121899
Decay Rate1.4E-07
L11 45152U 20008X 20298.25001157 .00000014 00000-0 00000+0 0 9993
L22 45152 88.0221 86.2427 0020740 120.2168 78.7377 13.36121899 38904

Live tracking and technical data element details for ONEWEB-0047 (NORAD 45152). ONEWEB-0047 can be tracked NOW for your location showing map with azimuth and elevation plus other details from your city location.

Track the satellite on the map from your city or location and see movement details for azimuth, elevation, latitude, longitude, range, height, and movement on the map or in text.







IsCatalogInMostPopularTable: catalog: 45152, numindb: 60
Update: records affected: 1



GetName: 45152 ONEWEB-0047

Hit Count: updated at: Sun, 25 Oct 2020 00:14:40 GMT